Terminal Aerodrome Forecast
Issued by NWS Chicago, IL

Home | Current Version | Previous Version | Graphics & Text | Print | Product List | Glossary On
Versions: 1 2 3 4 5 6 7 8 9 10 11 12 13 14 15 16 17 18 19 20 21 22 23 24 25 26 27 28 29 30 31 32 33 34 35 36 37 38 39
000
FTUS43 KLOT 170500 RRA
TAFRFD
TAF
KRFD 170542Z 1706/1806 00000KT P6SM FEW040 SCT250
     FM170800 07008KT 3SM BR SCT007 BKN015
      TEMPO 1710/1713 2SM BR BKN007
     FM171500 09010KT P6SM BKN015 OVC025
     FM171800 09011KT P6SM SCT015 BKN025
     FM172000 09009KT P6SM SCT030 SCT250
     FM180300 09006KT P6SM SCT050 BKN080=

USA.gov is the U.S. government's official web portal to all federal, state and local government web resources and services.